Retour au catalogue

OPS 5960 DEB

ActifMEO
NORAD 43000·DEBRIS·🇺🇸 United States

Lancé Nov 6, 1970 depuis Cape Canaveral Space Force Station

Loading…

Prochains Passages (prochaines 24 heures)

TLE

FraisSource: Space-Track

Époque: Sep 4, 2026, 17:57 UTC

1 43000U 70093D   26247.74793572 -.00000136  00000-0  00000-0 0  9992
2 43000  15.3322  34.3474 1181430 271.0638  75.4888  1.20555416 46587

Suivez OPS 5960 DEB en temps réel avec AllMySat

Download on the App Store